Location: Altleiningen
(49.5078°N, 8.0741°E)
Time: 18:36:02
(UTC+00:00)

SL-16 R/B - Visible Passes

Search period start: 16 June 2021 00:00
Search period end: 26 June 2021 00:00
Orbit: 843 x 845 km, 71.0° (Epoch: 15 June)

Date Brightness Start Highest point End Pass type
(mag) Time Alt. Az. Time Alt. Az. Time Alt. Az.
16 Jun 3.8 21:44:25 10° WSW 21:49:37 36° NW 21:54:50 10° NNE visible
16 Jun 5.2 23:33:31 10° NW 23:35:33 12° NNW 23:37:36 10° N visible
17 Jun 3.8 21:30:02 10° WSW 21:35:16 37° NW 21:40:31 10° NNE visible
17 Jun 5.3 23:19:01 10° NW 23:21:10 12° NNW 23:23:19 10° N visible
18 Jun 3.8 21:15:39 10° WSW 21:20:55 38° NW 21:26:12 10° NNE visible
18 Jun 5.3 23:04:32 10° NW 23:06:47 12° NNW 23:09:02 10° N visible
19 Jun 5.3 02:37:41 10° N 02:40:51 15° NNE 02:44:00 10° ENE visible
19 Jun 3.8 21:01:16 10° WSW 21:06:33 39° NW 21:11:52 10° NNE visible
19 Jun 5.3 22:50:02 10° NW 22:52:24 12° NNW 22:54:45 10° N visible
20 Jun 5.4 02:23:23 10° N 02:26:28 15° NNE 02:29:33 10° ENE visible
20 Jun 3.8 20:46:53 10° WSW 20:52:12 40° NW 20:57:33 10° NNE visible
20 Jun 5.4 22:35:33 10° NW 22:38:01 13° NNW 22:40:28 10° N visible
21 Jun 5.5 02:09:06 10° N 02:12:05 14° NNE 02:15:05 10° ENE visible
21 Jun 3.8 20:32:31 10° WSW 20:37:51 41° NW 20:43:13 10° NNE visible
21 Jun 5.4 22:21:04 10° NW 22:23:37 13° NNW 22:26:11 10° N visible
22 Jun 5.5 01:54:47 10° N 01:57:42 14° NNE 02:00:37 10° ENE visible
22 Jun 3.7 20:18:08 10° WSW 20:23:30 42° NW 20:28:54 10° NNE visible
22 Jun 5.5 22:06:36 10° NW 22:09:14 13° NNW 22:11:53 10° N visible
23 Jun 5.6 01:40:29 10° N 01:43:19 14° NNE 01:46:09 10° ENE visible
23 Jun 5.5 21:52:07 10° WNW 21:54:51 13° NNW 21:57:35 10° N visible
24 Jun 5.7 01:26:12 10° N 01:28:56 13° NNE 01:31:41 10° ENE visible
24 Jun 5.6 21:37:39 10° WNW 21:40:28 14° NNW 21:43:18 10° N visible
25 Jun 5.6 01:11:55 10° N 01:14:34 13° NNE 01:17:12 10° NE visible
25 Jun 5.6 21:23:11 10° WNW 21:26:05 14° NNW 21:29:01 10° N visible
